N23SM EGPH-EGGD

Flight info

Callsign N23SM
Flight time N/A
Altitude 29000
Route GOSAM P600 FENIK L612 NAVSO DCT ADZOP DCT EGTOC DCT NOKIN N862 KARNO/N0314F300 DCT ALHUP DCT LUCSA/N0308F230 N862 WEVBE
Aircraft TBM9/L-SDFGRWY/S

Departure

Time 2026-04-30 22:16
Airport Edinburgh Airport (EGPH)

Arrival

Time N/A
Airport Bristol Airport (EGGD)
Time Latitude Longitude Altitude Speed Heading
2026-04-30 22:06 55.94740 -3.34614 111 ft 0 kts 149°
2026-04-30 22:09 55.94736 -3.34653 109 ft 10 kts 294°
2026-04-30 22:09 55.94773 -3.34785 111 ft 12 kts 284°
2026-04-30 22:10 55.94812 -3.34922 111 ft 14 kts 297°
2026-04-30 22:10 55.94859 -3.35087 110 ft 16 kts 275°
2026-04-30 22:10 55.94913 -3.35263 111 ft 17 kts 307°
2026-04-30 22:10 55.94977 -3.35459 110 ft 19 kts 300°
2026-04-30 22:11 55.95056 -3.35837 109 ft 0 kts 332°
2026-04-30 22:11 55.95072 -3.35897 111 ft 19 kts 289°
2026-04-30 22:11 55.95127 -3.36206 109 ft 28 kts 275°
2026-04-30 22:12 55.95049 -3.36531 109 ft 30 kts 242°
2026-04-30 22:12 55.94939 -3.36851 109 ft 31 kts 237°
2026-04-30 22:12 55.94824 -3.37187 111 ft 32 kts 238°
2026-04-30 22:12 55.94747 -3.37417 111 ft 33 kts 240°
2026-04-30 22:13 55.94627 -3.37776 110 ft 34 kts 238°
2026-04-30 22:13 55.94502 -3.38143 111 ft 35 kts 239°
2026-04-30 22:13 55.94373 -3.38519 111 ft 34 kts 238°
2026-04-30 22:13 55.94290 -3.38766 111 ft 16 kts 239°
2026-04-30 22:14 55.94316 -3.38901 111 ft 12 kts 330°
2026-04-30 22:14 55.94328 -3.38912 109 ft 0 kts 329°
2026-04-30 22:15 55.94329 -3.38913 109 ft 2 kts 328°
2026-04-30 22:15 55.94397 -3.38980 109 ft 17 kts 330°
2026-04-30 22:15 55.94478 -3.38805 109 ft 35 kts 60°
2026-04-30 22:15 55.94714 -3.38098 109 ft 97 kts 58°
2026-04-30 22:16 55.95154 -3.36862 264 ft 134 kts 57°
2026-04-30 22:16 55.95644 -3.35363 751 ft 141 kts 62°
2026-04-30 22:17 55.97486 -3.30130 2142 ft 180 kts 63°
2026-04-30 22:17 55.98235 -3.28273 2611 ft 191 kts 45°
2026-04-30 22:17 56.00838 -3.27278 3706 ft 197 kts 349°
2026-04-30 22:18 56.02109 -3.28123 4255 ft 195 kts 324°
2026-04-30 22:18 56.03464 -3.32024 5307 ft 187 kts 270°
2026-04-30 22:19 56.02896 -3.36430 6371 ft 184 kts 248°
2026-04-30 22:19 56.02545 -3.38640 6884 ft 186 kts 250°
2026-04-30 22:19 56.01872 -3.43155 7861 ft 191 kts 250°
2026-04-30 22:20 56.01536 -3.45424 8359 ft 192 kts 250°
2026-04-30 22:20 56.00884 -3.50072 9367 ft 194 kts 249°
2026-04-30 22:20 56.00551 -3.52417 9872 ft 195 kts 248°
2026-04-30 22:21 56.00217 -3.54769 10351 ft 196 kts 248°
2026-04-30 22:21 55.99880 -3.57137 10809 ft 196 kts 248°
2026-04-30 22:21 55.99542 -3.59499 11273 ft 197 kts 248°
2026-04-30 22:21 55.99204 -3.61874 11738 ft 198 kts 248°
2026-04-30 22:22 55.98862 -3.64253 12211 ft 198 kts 248°
2026-04-30 22:22 55.98520 -3.66645 12676 ft 199 kts 248°
2026-04-30 22:22 55.98177 -3.69039 13135 ft 200 kts 248°
2026-04-30 22:22 55.97830 -3.71452 13597 ft 200 kts 248°
2026-04-30 22:23 55.97483 -3.73866 14050 ft 201 kts 247°
2026-04-30 22:23 55.97133 -3.76285 14455 ft 202 kts 247°
2026-04-30 22:23 55.96782 -3.78723 14839 ft 203 kts 247°
2026-04-30 22:23 55.96427 -3.81176 15232 ft 205 kts 247°
2026-04-30 22:24 55.96069 -3.83648 15625 ft 206 kts 247°
2026-04-30 22:24 55.95707 -3.86137 16011 ft 208 kts 247°
2026-04-30 22:24 55.95344 -3.88645 16407 ft 209 kts 247°
2026-04-30 22:24 55.94975 -3.91176 16804 ft 211 kts 247°
2026-04-30 22:25 55.94604 -3.93723 17199 ft 213 kts 247°
2026-04-30 22:25 55.94233 -3.96258 17613 ft 214 kts 246°
2026-04-30 22:25 55.93739 -3.98729 18001 ft 210 kts 238°
2026-04-30 22:25 55.93062 -4.01021 18399 ft 208 kts 230°
2026-04-30 22:26 55.91248 -4.04934 19099 ft 203 kts 216°
2026-04-30 22:26 55.90130 -4.06534 19206 ft 213 kts 210°
2026-04-30 22:26 55.88860 -4.08041 19212 ft 225 kts 210°
2026-04-30 22:27 55.87538 -4.09651 19223 ft 234 kts 210°
2026-04-30 22:27 55.86170 -4.11313 19222 ft 242 kts 210°
2026-04-30 22:27 55.83307 -4.14764 19220 ft 253 kts 210°
2026-04-30 22:28 55.80356 -4.18313 19219 ft 258 kts 210°
2026-04-30 22:28 55.78866 -4.20102 19221 ft 259 kts 210°
2026-04-30 22:29 55.74311 -4.25317 19200 ft 258 kts 199°
2026-04-30 22:29 55.72598 -4.26209 19199 ft 256 kts 189°
2026-04-30 22:30 55.65795 -4.23604 19198 ft 259 kts 154°
2026-04-30 22:31 55.61088 -4.18990 19196 ft 259 kts 155°
2026-04-30 22:32 55.56357 -4.14357 19192 ft 259 kts 155°
2026-04-30 22:32 55.53203 -4.11280 19186 ft 259 kts 155°
2026-04-30 22:33 55.48472 -4.06673 19187 ft 258 kts 155°
2026-04-30 22:33 55.45329 -4.03619 19188 ft 258 kts 155°
2026-04-30 22:34 55.40601 -3.99036 19204 ft 259 kts 154°
2026-04-30 22:35 55.37436 -3.95976 19199 ft 259 kts 154°
2026-04-30 22:36 55.31125 -3.89890 19203 ft 259 kts 155°
2026-04-30 22:36 55.29546 -3.88369 19199 ft 259 kts 155°
2026-04-30 22:37 55.24834 -3.83842 19200 ft 259 kts 154°
2026-04-30 22:37 55.23252 -3.82328 19199 ft 260 kts 154°
2026-04-30 22:37 55.19898 -3.80103 19209 ft 258 kts 165°
2026-04-30 22:38 55.16474 -3.78193 19209 ft 258 kts 164°
2026-04-30 22:38 55.13043 -3.76317 19205 ft 259 kts 165°
2026-04-30 22:39 55.11326 -3.75375 19205 ft 259 kts 164°
2026-04-30 22:39 55.06171 -3.72555 19197 ft 259 kts 164°
2026-04-30 22:40 55.01015 -3.69744 19200 ft 259 kts 164°
2026-04-30 22:41 54.95863 -3.66943 19197 ft 258 kts 165°
2026-04-30 22:41 54.92443 -3.65085 19204 ft 257 kts 164°
2026-04-30 22:42 54.85638 -3.61403 19192 ft 256 kts 164°
2026-04-30 22:43 54.82236 -3.59566 19193 ft 256 kts 164°
2026-04-30 22:43 54.78835 -3.57733 19189 ft 255 kts 164°
2026-04-30 22:44 54.75440 -3.55907 19190 ft 255 kts 165°
2026-04-30 22:45 54.68655 -3.52266 19188 ft 255 kts 165°
2026-04-30 22:45 54.65265 -3.50452 19185 ft 255 kts 165°
2026-04-30 22:46 54.61874 -3.48641 19185 ft 255 kts 165°
2026-04-30 22:47 54.55096 -3.45028 19188 ft 255 kts 165°
2026-04-30 22:47 54.51729 -3.43241 19187 ft 255 kts 164°
2026-04-30 22:48 54.48346 -3.41446 19197 ft 255 kts 165°
2026-04-30 22:49 54.43257 -3.38752 19196 ft 255 kts 165°
2026-04-30 22:49 54.38169 -3.36065 19197 ft 255 kts 165°
2026-04-30 22:50 54.31393 -3.32499 19197 ft 254 kts 165°
2026-04-30 22:51 54.28002 -3.30720 19193 ft 255 kts 165°
2026-04-30 22:51 54.24614 -3.28943 19196 ft 255 kts 165°
2026-04-30 22:52 54.22920 -3.28058 19193 ft 255 kts 165°
2026-04-30 22:52 54.19530 -3.26284 19195 ft 255 kts 164°
2026-04-30 22:53 54.16075 -3.25288 19202 ft 254 kts 174°
2026-04-30 22:53 54.12557 -3.24714 19199 ft 254 kts 174°
2026-04-30 22:53 54.10798 -3.24438 19198 ft 254 kts 174°
2026-04-30 22:54 54.07283 -3.23888 19189 ft 254 kts 174°
2026-04-30 22:55 54.02006 -3.23060 19186 ft 254 kts 174°
2026-04-30 22:55 53.98527 -3.22181 19182 ft 253 kts 167°
2026-04-30 22:56 53.95089 -3.20876 19187 ft 253 kts 168°
2026-04-30 22:56 53.89930 -3.18916 19177 ft 253 kts 167°
2026-04-30 22:57 53.86494 -3.17614 19177 ft 253 kts 167°
2026-04-30 22:57 53.83061 -3.16315 19177 ft 253 kts 167°
2026-04-30 22:58 53.79650 -3.15026 19175 ft 253 kts 167°
2026-04-30 22:59 53.74495 -3.13082 19175 ft 253 kts 168°
2026-04-30 22:59 53.69367 -3.11154 19174 ft 254 kts 167°